This demonstration page uses our WeatherBlox Daily Observations layout. Learn more.

40.92945, -100.16068

Hourly Observations for August 18, 2018

Temp ( °F °C ) Dew Point ( °F °C ) Humidity (%) Winds ( mph kmh ) Pressure ( in mb ) Visibility ( mi km ) Precip ( " mm )
12:15 am 00:15 Clear 69 20.8 65 18.1 85 85 SE 5 7 30.09 1019 10 16.0934 0 0
12:35 am 00:35 Clear 70 21.2 64 17.8 81 81 SE 7 11 30.09 1019 10 16.0934 0 0
12:55 am 00:55 Clear 69 20.5 64 17.7 84 84 S 5 7 30.09 1019 10 16.0934 0 0
1:15 am 01:15 Clear 67 19.6 63 17.4 87 87 Calm 30.09 1019 10 16.0934 0 0
1:35 am 01:35 Clear 67 19.3 64 17.5 89 89 Calm 30.06 1018 10 16.0934 0 0
1:55 am 01:55 Clear 67 19.3 63 17.4 89 89 Calm 30.06 1018 10 16.0934 0 0
2:15 am 02:15 Clear 66 19 63 17.2 89 89 Calm 30.06 1018 10 16.0934 0 0
2:35 am 02:35 Partly Cloudy 65 18.5 63 17.1 92 92 Calm 30.06 1018 7 11.26538 0 0
2:55 am 02:55 Partly Cloudy with Mist and Fog 65 18.1 63 17 93 93 E 3 6 30.06 1018 5 8.0467 0 0
3:15 am 03:15 Partly Cloudy 64 18 62 16.8 93 93 ESE 5 7 30.06 1018 7 11.26538 0 0
3:35 am 03:35 Partly Cloudy 65 18.6 63 17.3 92 92 SSE 3 6 30.06 1018 7 11.26538 0 0
3:55 am 03:55 Clear 65 18.5 63 17 91 91 ESE 3 6 30.06 1018 7 11.26538 0 0
4:15 am 04:15 Clear 65 18.5 63 17.1 92 92 Calm 30.06 1018 7 11.26538 0 0
4:35 am 04:35 Partly Cloudy 64 17.7 62 16.6 93 93 Calm 30.06 1018 7 11.26538 0 0
4:55 am 04:55 Mostly Cloudy 64 17.9 62 16.8 93 93 E 5 7 30.03 1017 7 11.26538 0 0
5:15 am 05:15 Partly Cloudy with Mist and Fog 64 17.7 62 16.7 94 94 E 3 6 30.03 1017 5 8.0467 0 0
5:35 am 05:35 Clear with Mist and Fog 63 17.4 62 16.4 94 94 Calm 30.03 1017 4 6.43736 0 0
5:55 am 05:55 Clear 63 17.3 62 16.4 94 94 Calm 30.06 1018 7 11.26538 0 0
6:15 am 06:15 Clear 63 17.3 62 16.4 94 94 Calm 30.06 1018 7 11.26538 0 0
6:35 am 06:35 Clear with Mist and Fog 63 17 61 16 94 94 E 3 6 30.06 1018 5 8.0467 0 0
6:55 am 06:55 Sunny with Mist and Fog 62 16.8 61 15.9 94 94 E 5 7 30.06 1018 4 6.43736 0 0
7:15 am 07:15 Sunny with Mist and Fog 62 16.7 61 16 96 96 E 5 7 30.06 1018 3 4.82802 0 0
7:35 am 07:35 Sunny with Mist and Fog 64 17.6 62 16.8 95 95 ESE 3 6 30.03 1017 5 8.0467 0 0
7:55 am 07:55 Sunny 65 18.5 63 17.2 92 92 Calm 30.03 1017 7 11.26538 0 0
8:15 am 08:15 Sunny 66 19 64 17.5 91 91 Calm 30.03 1017 7 11.26538 0 0
8:35 am 08:35 Sunny 67 19.6 64 17.6 88 88 SSE 5 7 30.03 1017 10 16.0934 0 0
8:55 am 08:55 Sunny 69 20.5 65 18.1 86 86 SE 5 7 30.03 1017 10 16.0934 0 0
9:15 am 09:15 Sunny 71 21.8 65 18.5 82 82 SE 5 7 30 1016 10 16.0934 0 0
9:35 am 09:35 Partly Cloudy 73 22.8 66 19 79 79 SE 6 9 30 1016 10 16.0934 0 0
9:55 am 09:55 Partly Cloudy 74 23.6 66 18.9 75 75 S 7 11 30 1016 10 16.0934 0 0
10:15 am 10:15 Sunny 76 24.5 66 18.9 71 71 S 8 13 29.97 1015 10 16.0934 0 0
10:35 am 10:35 Sunny 77 25.2 66 18.8 68 68 S 9 15 29.97 1015 10 16.0934 0 0
10:55 am 10:55 Sunny 79 26.2 66 18.8 64 64 S 10 17 29.94 1014 10 16.0934 0 0
11:15 am 11:15 Sunny 80 26.5 65 18.2 60 60 S 13 20 29.94 1014 10 16.0934 0 0
11:35 am 11:35 Sunny 81 27 65 18.6 60 60 S 9 15 29.94 1014 10 16.0934 0 0
11:55 am 11:55 Sunny 82 27.5 66 18.9 59 59 SSE 12 19 29.94 1014 10 16.0934 0 0
12:15 pm 12:15 Sunny 83 28.1 66 19.1 58 58 S 14 22 29.91 1013 10 16.0934 0 0
12:35 pm 12:35 Sunny 83 28.1 66 18.8 57 57 SSE 15 24 29.91 1013 10 16.0934 0 0
12:55 pm 12:55 Sunny 83 28.4 66 18.7 56 56 SSE 14 22 29.91 1013 10 16.0934 0 0
1:15 pm 13:15 Partly Cloudy 83 28.6 67 19.3 57 57 S 14 22 29.88 1012 10 16.0934 0 0
1:35 pm 13:35 Partly Cloudy 84 28.9 66 19 55 55 S 15 24 29.88 1012 10 16.0934 0 0
1:55 pm 13:55 Mostly Cloudy 84 29 66 18.9 54 54 S 16 26 29.88 1012 10 16.0934 0 0
2:15 pm 14:15 Mostly Cloudy 84 29 65 18.3 52 52 S 13 20 29.88 1012 10 16.0934 0 0
2:35 pm 14:35 Mostly Cloudy 84 28.7 65 18.2 53 53 S 15 24 29.88 1012 10 16.0934 0 0
2:55 pm 14:55 Cloudy 84 29 66 18.9 54 54 S 12 19 29.88 1012 10 16.0934 0 0
3:15 pm 15:15 Mostly Cloudy 85 29.4 65 18.3 51 51 S 12 19 29.88 1012 10 16.0934 0 0
3:35 pm 15:35 Partly Cloudy 86 29.8 65 18.1 49 49 S 9 15 29.88 1012 10 16.0934 0 0
3:55 pm 15:55 Partly Cloudy 86 29.9 65 18.4 50 50 SSE 13 20 29.88 1012 10 16.0934 0 0
4:15 pm 16:15 Partly Cloudy 83 28.6 64 17.9 52 52 SSE 10 17 29.88 1012 10 16.0934 0 0
4:35 pm 16:35 Partly Cloudy 85 29.6 65 18.2 50 50 SSE 10 17 29.85 1011 10 16.0934 0 0
4:55 pm 16:55 Partly Cloudy 86 29.8 64 17.8 49 49 SE 12 19 29.85 1011 10 16.0934 0 0
5:15 pm 17:15 Sunny 85 29.4 64 17.8 50 50 SSE 12 19 29.85 1011 10 16.0934 0 0
5:35 pm 17:35 Sunny 84 29.1 64 17.8 51 51 SSE 13 20 29.85 1011 10 16.0934 0 0
5:55 pm 17:55 Sunny 83 28.6 64 18 53 53 SSE 9 15 29.83 1010 10 16.0934 0 0
6:15 pm 18:15 Sunny 83 28.4 64 17.9 53 53 SSE 10 17 29.83 1010 10 16.0934 0 0
6:35 pm 18:35 Sunny 82 27.9 65 18.1 55 55 SSE 9 15 29.83 1010 10 16.0934 0 0
6:55 pm 18:55 Sunny 81 27.3 65 18.3 58 58 SSE 8 13 29.83 1010 10 16.0934 0 0
7:15 pm 19:15 Sunny 81 27 65 18.5 60 60 SSE 7 11 29.83 1010 10 16.0934 0 0
7:35 pm 19:35 Sunny 80 26.5 66 18.8 63 63 SSE 7 11 29.85 1011 10 16.0934 0 0
7:55 pm 19:55 Sunny 79 26.2 65 18.6 63 63 SE 8 13 29.85 1011 10 16.0934 0 0
8:15 pm 20:15 Sunny 78 25.7 66 18.8 66 66 SE 7 11 29.85 1011 10 16.0934 0 0
8:35 pm 20:35 Clear 77 24.8 66 19.1 71 71 SSE 5 7 29.85 1011 10 16.0934 0 0
8:55 pm 20:55 Clear 74 23.3 67 19.5 79 79 S 6 9 29.85 1011 7 11.26538 0 0
9:15 pm 21:15 Clear 73 22.6 67 19.5 83 83 SSW 3 6 29.88 1012 7 11.26538 0 0
9:35 pm 21:35 Clear 72 22.3 67 19.5 84 84 Calm 29.88 1012 10 16.0934 0 0
9:55 pm 21:55 Clear 72 22.2 67 19.5 85 85 SSW 3 6 29.91 1013 10 16.0934 0 0
10:15 pm 22:15 Mostly Cloudy 72 22 67 19.3 85 85 WSW 3 6 29.91 1013 10 16.0934 0 0
10:35 pm 22:35 Mostly Cloudy 72 22 67 19.2 84 84 WSW 5 7 29.91 1013 10 16.0934 0 0
10:55 pm 22:55 Mostly Cloudy 71 21.8 67 19.2 85 85 W 5 7 29.91 1013 10 16.0934 0 0
11:15 pm 23:15 Mostly Cloudy 70 21.2 67 19.2 88 88 WSW 3 6 29.91 1013 10 16.0934 0 0
11:35 pm 23:35 Partly Cloudy 70 21.3 66 19 87 87 Calm 29.91 1013 10 16.0934 0 0
11:55 pm 23:55 Partly Cloudy 70 21.3 66 18.7 85 85 Calm 29.91 1013 10 16.0934 0 0

Powered by AerisWeather